Location: Bern�tre
(50.1974°N, 2.0915°E)
Time: 06:00:49
(UTC+00:00)

CZ-4C R/B - Pass Details

Date: 18 September 2020
Orbit: 626 x 1376 km, 63.4° (Epoch: 27 October)

Event Time Altitude Azimuth Distance (km) Brightness Sun altitude
Exits shadow 23:02:01 19° 44° (NE) 2,014 4.4 -37.6°
Drops below altitude 10° 23:03:48 10° 44° (NE) 2,679 5.1 -37.6°
Sets 23:06:37 0° 44° (NE) 3,754 5.9 -37.7°
